This is the latest recevied weather packets stored in our database for station/object N3LF. If no packets are shown the sender has not sent any weather packets the latest 10 day(s).
| Time | Temp. | Humidity | Pressure | Rain* | Wind** | Luminosity | Snow |
|---|---|---|---|---|---|---|---|
| 1788463608 | 38.89° C | 47% | 1018.1 hPa | 0 mm | - | 595 W/m² | - |
| 1788463308 | 38.33° C | 45% | 1018 hPa | 0 mm | - | 590 W/m² | - |
| 1788463004 | 37.78° C | 44% | 1018.1 hPa | 0 mm | - | 610 W/m² | - |
| 1788462704 | 36.67° C | 47% | 1018 hPa | 0 mm | - | 614 W/m² | - |
| 1788462399 | 37.22° C | 48% | 1018.2 hPa | 0 mm | - | 161 W/m² | - |
| 1788462099 | 37.78° C | 47% | 1018.1 hPa | 0 mm | - | 167 W/m² | - |
| 1788461794 | 37.78° C | 49% | 1018.4 hPa | 0 mm | - | 629 W/m² | - |
| 1788461489 | 36.11° C | 48% | 1018.2 hPa | 0 mm | - | 639 W/m² | - |
| 1788461186 | 36.67° C | 48% | 1018.3 hPa | 0 mm | - | 655 W/m² | - |
| 1788460881 | 37.78° C | 46% | 1018.5 hPa | 0 mm | - | 259 W/m² | - |
| 1788460579 | 38.89° C | 43% | 1018.3 hPa | 0 mm | - | 660 W/m² | - |
| 1788460275 | 38.89° C | 44% | 1018.6 hPa | 0 mm | - | 659 W/m² | - |
| 1788459974 | 37.78° C | 47% | 1018.5 hPa | 0 mm | - | 670 W/m² | - |
| 1788459670 | 37.22° C | 48% | 1018.7 hPa | 0 mm | - | 674 W/m² | - |
| 1788459390 | 37.22° C | 47% | 1018.8 hPa | 0 mm | - | 679 W/m² | - |
| 1788459069 | 37.78° C | 46% | 1018.9 hPa | 0 mm | - | 668 W/m² | - |
| 1788458764 | 37.78° C | 48% | 1018.8 hPa | 0 mm | - | 670 W/m² | - |
| 1788458459 | 37.22° C | 49% | 1018.9 hPa | 0 mm | - | 698 W/m² | - |
| 1788458158 | 36.67° C | 47% | 1019 hPa | 0 mm | - | 702 W/m² | - |
| 1788457858 | 37.22° C | 43% | 1019.1 hPa | 0 mm | - | 704 W/m² | - |
| 1788457552 | 36.67° C | 50% | 1019.1 hPa | 0 mm | - | 648 W/m² | - |
| 1788457247 | 36.11° C | 50% | 1019 hPa | 0 mm | - | 658 W/m² | - |
| 1788456942 | 37.22° C | 47% | 1019.2 hPa | 0 mm | - | 653 W/m² | - |
| 1788456639 | 36.67° C | 49% | 1019.1 hPa | 0 mm | - | 651 W/m² | - |
| 1788456338 | 36.11° C | 49% | 1019.2 hPa | 0 mm | - | 655 W/m² | - |
* Rain latest hour (hover to see other rain measurements)
** Current wind speed in m/s (hover to see current wind gust speed)